SB KEPS @ AMSAT $ORB11328.O Orbital Elements 11328.OSCAR
HR AMSAT ORBITAL ELEMENTS FOR OSCAR SATELLITES FROM WA5QGD FORT WORTH,TX November 24, 2011 Send Subscribe/unsubscribe to KEPS at http://www.amsat.org/mailman/listinfo/keps BID: ORB11328.O TO ALL RADIO AMATEURS BT
Satellite: AO-07 Catalog number: 07530 Epoch time: 11327.84772138 Element set: 0239 Inclination: 101.3968 deg RA of node: 328.1074 deg Eccentricity: 0.0011929 Arg of perigee: 327.2014 deg Mean anomaly: 032.8313 deg Mean motion: 12.53585662 rev/day Decay rate: -2.7e-07 rev/day^2 Epoch rev: 69419 Checksum: 297
Satellite: FO-29 Catalog number: 24278 Epoch time: 11328.89889464 Element set: 717 Inclination: 098.5700 deg RA of node: 091.5678 deg Eccentricity: 0.0350390 Arg of perigee: 200.7610 deg Mean anomaly: 157.8992 deg Mean motion: 13.52971242 rev/day Decay rate: 5.4e-07 rev/day^2 Epoch rev: 75419 Checksum: 344
Satellite: SO-33 Catalog number: 25509 Epoch time: 11327.64616612 Element set: 106 Inclination: 031.4327 deg RA of node: 062.3641 deg Eccentricity: 0.0353174 Arg of perigee: 196.3034 deg Mean anomaly: 162.5974 deg Mean motion: 14.28552969 rev/day Decay rate: 1.871e-05 rev/day^2 Epoch rev: 68309 Checksum: 308
Satellite: RS-22 Catalog number: 27939 Epoch time: 11328.60320086 Element set: 840 Inclination: 097.8247 deg RA of node: 174.7795 deg Eccentricity: 0.0013055 Arg of perigee: 193.0474 deg Mean anomaly: 167.0383 deg Mean motion: 14.63777631 rev/day Decay rate: 1.241e-05 rev/day^2 Epoch rev: 43580 Checksum: 315
Satellite: VO-52 Catalog number: 28650 Epoch time: 11328.69854330 Element set: 957 Inclination: 097.6242 deg RA of node: 004.5010 deg Eccentricity: 0.0026886 Arg of perigee: 358.2563 deg Mean anomaly: 001.8531 deg Mean motion: 14.82440328 rev/day Decay rate: 2.465e-05 rev/day^2 Epoch rev: 35452 Checksum: 303
Satellite: SO-67 Catalog number: 35870 Epoch time: 11328.90342593 Element set: 436 Inclination: 097.2619 deg RA of node: 006.8042 deg Eccentricity: 0.0002480 Arg of perigee: 136.5391 deg Mean anomaly: 219.3058 deg Mean motion: 15.21980912 rev/day Decay rate: 7.610e-05 rev/day^2 Epoch rev: 12136 Checksum: 297
Satellite: HO-68 Catalog number: 36122 Epoch time: 11328.23507393 Element set: 952 Inclination: 100.3947 deg RA of node: 026.4737 deg Eccentricity: 0.0007360 Arg of perigee: 217.6711 deg Mean anomaly: 142.3885 deg Mean motion: 13.16290446 rev/day Decay rate: -4.4e-07 rev/day^2 Epoch rev: 9329 Checksum: 295
/EX SB KEPS @ AMSAT $ORB11328.D Orbital Elements 11328.MICROS
HR AMSAT ORBITAL ELEMENTS FOR THE MICROSATS FROM WA5QGD FORT WORTH,TX November 24, 2011 Send Subscribe/unsubscribe to KEPS at http://www.amsat.org/mailman/listinfo/keps BID: ORB11328.D TO ALL RADIO AMATEURS BT
Satellite: UO-11 Catalog number: 14781 Epoch time: 11327.96086287 Element set: 0722 Inclination: 097.9847 deg RA of node: 023.9920 deg Eccentricity: 0.0009160 Arg of perigee: 348.6158 deg Mean anomaly: 011.4842 deg Mean motion: 14.80179656 rev/day Decay rate: 1.257e-05 rev/day^2 Epoch rev: 48942 Checksum: 332
Satellite: AO-16 Catalog number: 20439 Epoch time: 11327.89694375 Element set: 333 Inclination: 098.4043 deg RA of node: 272.3312 deg Eccentricity: 0.0011791 Arg of perigee: 052.2843 deg Mean anomaly: 307.9404 deg Mean motion: 14.31980846 rev/day Decay rate: 3.93e-06 rev/day^2 Epoch rev: 14047 Checksum: 302
Satellite: LO-19 Catalog number: 20442 Epoch time: 11327.88167706 Element set: 254 Inclination: 098.3685 deg RA of node: 276.0677 deg Eccentricity: 0.0012613 Arg of perigee: 046.1183 deg Mean anomaly: 314.1035 deg Mean motion: 14.32203272 rev/day Decay rate: 4.20e-06 rev/day^2 Epoch rev: 14065 Checksum: 275
Satellite: AO-27 Catalog number: 22825 Epoch time: 11327.96279704 Element set: 0968 Inclination: 098.5505 deg RA of node: 269.2567 deg Eccentricity: 0.0008679 Arg of perigee: 160.6486 deg Mean anomaly: 199.5024 deg Mean motion: 14.29398427 rev/day Decay rate: 2.25e-06 rev/day^2 Epoch rev: 94701 Checksum: 358
Satellite: IO-26 Catalog number: 22826 Epoch time: 11327.86277646 Element set: 713 Inclination: 098.5443 deg RA of node: 269.5853 deg Eccentricity: 0.0009189 Arg of perigee: 155.1963 deg Mean anomaly: 204.9660 deg Mean motion: 14.29666268 rev/day Decay rate: 3.48e-06 rev/day^2 Epoch rev: 94712 Checksum: 352
Satellite: GO-32 Catalog number: 25397 Epoch time: 11328.62561019 Element set: 637 Inclination: 098.3409 deg RA of node: 312.7263 deg Eccentricity: 0.0001600 Arg of perigee: 132.1142 deg Mean anomaly: 228.0160 deg Mean motion: 14.23239835 rev/day Decay rate: 2.35e-06 rev/day^2 Epoch rev: 69478 Checksum: 283
Satellite: NO-44 Catalog number: 26931 Epoch time: 11327.89162048 Element set: 0905 Inclination: 067.0532 deg RA of node: 291.9990 deg Eccentricity: 0.0004881 Arg of perigee: 267.6412 deg Mean anomaly: 092.4124 deg Mean motion: 14.29723129 rev/day Decay rate: 3.82e-06 rev/day^2 Epoch rev: 52975 Checksum: 319
Satellite: SO-50 Catalog number: 27607 Epoch time: 11328.82555566 Element set: 622 Inclination: 064.5585 deg RA of node: 199.4601 deg Eccentricity: 0.0083303 Arg of perigee: 288.3376 deg Mean anomaly: 070.8657 deg Mean motion: 14.72034307 rev/day Decay rate: 1.571e-05 rev/day^2 Epoch rev: 47973 Checksum: 328
Satellite: CO-55 Catalog number: 27844 Epoch time: 11328.59429366 Element set: 250 Inclination: 098.7057 deg RA of node: 334.9729 deg Eccentricity: 0.0010458 Arg of perigee: 094.7670 deg Mean anomaly: 265.4692 deg Mean motion: 14.20904650 rev/day Decay rate: 5.41e-06 rev/day^2 Epoch rev: 43569 Checksum: 337
Satellite: CO-57 Catalog number: 27848 Epoch time: 11327.50660262 Element set: 0196 Inclination: 098.7144 deg RA of node: 333.1488 deg Eccentricity: 0.0010582 Arg of perigee: 101.6761 deg Mean anomaly: 258.5595 deg Mean motion: 14.20671092 rev/day Decay rate: 4.54e-06 rev/day^2 Epoch rev: 43548 Checksum: 317
Satellite: AO-51 Catalog number: 28375 Epoch time: 11328.46418059 Element set: 127 Inclination: 098.1178 deg RA of node: 298.6607 deg Eccentricity: 0.0083569 Arg of perigee: 305.0613 deg Mean anomaly: 054.2784 deg Mean motion: 14.40848059 rev/day Decay rate: 7.13e-06 rev/day^2 Epoch rev: 38914 Checksum: 333
Satellite: CP3 Catalog number: 31129 Epoch time: 11327.96134047 Element set: 0027 Inclination: 097.8922 deg RA of node: 342.8785 deg Eccentricity: 0.0102570 Arg of perigee: 044.9079 deg Mean anomaly: 316.0381 deg Mean motion: 14.52717435 rev/day Decay rate: 1.665e-05 rev/day^2 Epoch rev: 24403 Checksum: 298
Satellite: CO-65 Catalog number: 32785 Epoch time: 11328.75457583 Element set: 158 Inclination: 097.8312 deg RA of node: 029.4277 deg Eccentricity: 0.0015229 Arg of perigee: 017.0698 deg Mean anomaly: 343.1009 deg Mean motion: 14.82423035 rev/day Decay rate: 2.972e-05 rev/day^2 Epoch rev: 19332 Checksum: 319
Satellite: PRISM Catalog number: 33493 Epoch time: 11328.85252407 Element set: 177 Inclination: 098.1436 deg RA of node: 100.0756 deg Eccentricity: 0.0018891 Arg of perigee: 240.6425 deg Mean anomaly: 119.2877 deg Mean motion: 14.82601935 rev/day Decay rate: 6.349e-05 rev/day^2 Epoch rev: 15331 Checksum: 302
Satellite: SOHLA-1 Catalog number: 33496 Epoch time: 11328.86317672 Element set: 578 Inclination: 098.0930 deg RA of node: 077.1914 deg Eccentricity: 0.0006471 Arg of perigee: 341.6432 deg Mean anomaly: 018.4536 deg Mean motion: 14.69771526 rev/day Decay rate: 8.82e-06 rev/day^2 Epoch rev: 15208 Checksum: 319
Satellite: TISAT-1 Catalog number: 36799 Epoch time: 11328.69323330 Element set: 447 Inclination: 098.0857 deg RA of node: 038.4260 deg Eccentricity: 0.0016162 Arg of perigee: 117.0097 deg Mean anomaly: 243.2765 deg Mean motion: 14.81147772 rev/day Decay rate: 3.991e-05 rev/day^2 Epoch rev: 7406 Checksum: 314
Satellite: STUDSAT Catalog number: 36801 Epoch time: 11328.86469272 Element set: 288 Inclination: 098.0911 deg RA of node: 038.6285 deg Eccentricity: 0.0013963 Arg of perigee: 105.2511 deg Mean anomaly: 255.0244 deg Mean motion: 14.82146808 rev/day Decay rate: 1.0632e-04 rev/day^2 Epoch rev: 7408 Checksum: 294
Satellite: OOREOS Catalog number: 37224 Epoch time: 11283.12196780 Element set: 0302 Inclination: 071.9656 deg RA of node: 145.3580 deg Eccentricity: 0.0018647 Arg of perigee: 057.9354 deg Mean anomaly: 302.3616 deg Mean motion: 14.77183931 rev/day Decay rate: 9.55e-06 rev/day^2 Epoch rev: 04784 Checksum: 307
Satellite: FO-69 Catalog number: 37227 Epoch time: 11327.52777932 Element set: 0034 Inclination: 071.9707 deg RA of node: 047.8933 deg Eccentricity: 0.0017693 Arg of perigee: 339.6360 deg Mean anomaly: 020.4071 deg Mean motion: 14.76794195 rev/day Decay rate: 1.236e-05 rev/day^2 Epoch rev: 00558 Checksum: 326
Satellite: NANOSALD Catalog number: 37361 Epoch time: 11242.25215765 Element set: 0351 Inclination: 071.9735 deg RA of node: 221.4469 deg Eccentricity: 0.0025730 Arg of perigee: 245.3422 deg Mean anomaly: 114.7284 deg Mean motion: 15.22200108 rev/day Decay rate: 1.80112e-03 rev/day^2 Epoch rev: 03331 Checksum: 248
Satellite: FO-70 Catalog number: 37380 Epoch time: 11327.43140806 Element set: 0036 Inclination: 071.9738 deg RA of node: 048.4073 deg Eccentricity: 0.0018260 Arg of perigee: 337.2671 deg Mean anomaly: 022.7645 deg Mean motion: 14.76553400 rev/day Decay rate: 1.227e-05 rev/day^2 Epoch rev: 00546 Checksum: 281
/EX SB KEPS @ AMSAT $ORB11328.W Orbital Elements 11328.WEATHER
HR AMSAT ORBITAL ELEMENTS FOR WEATHER SATELLITES FROM WA5QGD FORT WORTH,TX November 24, 2011 Send Subscribe/unsubscribe to KEPS at http://www.amsat.org/mailman/listinfo/keps BID: ORB11328.W TO ALL RADIO AMATEURS BT
Satellite: NOAA-10 Catalog number: 16969 Epoch time: 11327.95294115 Element set: 0716 Inclination: 098.6056 deg RA of node: 355.4503 deg Eccentricity: 0.0012878 Arg of perigee: 115.8313 deg Mean anomaly: 244.4196 deg Mean motion: 14.27502641 rev/day Decay rate: 1.97e-06 rev/day^2 Epoch rev: 31044 Checksum: 304
